Terminal Aerodrome Forecast
Issued by NWS Denver/Boulder, CO

Home | Current Version | Previous Version | Text Only | Print | Product List | Glossary On
Versions: 1 2 3 4 5 6 7 8 9 10 11 12 13 14 15 16 17 18 19 20 21 22 23 24 25 26 27 28 29 30 31 32 33 34 35 36 37 38 39 40 41 42 43 44 45 46 47 48 49 50
495
FTUS45 KBOU 010131 AAB
TAFDEN
TAF AMD
KDEN 010131Z 0102/0206 09008KT P6SM SCT040 BKN070 BKN120
      TEMPO 0102/0104 -SHRA BKN040
     FM010500 14007KT P6SM SCT030 BKN040
     FM011000 18005KT P6SM VCFG SCT015 BKN020
     FM011500 14006KT P6SM SCT040 SCT060
     FM012000 12009KT P6SM SCT035 BKN070
     FM020100 16007KT P6SM SCT070 BKN120=

USA.gov is the U.S. government's official web portal to all federal, state and local government web resources and services.